Back to catalog

TIUNGSAT 1

AliveScienceVLEO
NORAD 26548·PAYLOAD·🇲🇾 Malaysia

Launched Sep 26, 2000 from Baikonur Cosmodrome

Loading…

Next Passes (next 24 hours)

TLE

FreshSource: Space-Track

Epoch: Sep 14, 2026, 14:12 UTC

1 26548U 00057D   26257.59206694  .00001890  00000-0  15411-3 0  9993
2 26548  64.5453 200.8358 0045802 280.0997  79.4952 15.01973739409659

Track TIUNGSAT 1 in real time with AllMySat

Download on the App Store